Location: Foligno
(42.9600°N, 12.7050°E)
Time: 17:27:12
(UTC+02:00)

ISS - Pass Details

Date: 24 May 2018
Orbit: 402 x 407 km, 51.6° (Epoch: 27 May)

Event Time Altitude Azimuth Distance (km) Brightness Sun altitude
Rises 02:57:27 0° 303° (WNW) 2,319 0.1 -21.3°
Reaches altitude 10° 02:59:33 10° 305° (NW) 1,457 -1.0 -21.2°
Enters shadow 03:00:15 16° 306° (NW) 1,171 -1.4 -21.1°
Exits shadow 03:07:28 - 121° (ESE) 2,031 -0.3 -20.4°
Sets 03:08:08 0° 121° (ESE) 2,306 0.0 -20.4°
